Flag for Germany Weather past 2 weeks in Lörrach, Baden-Württemberg, Germany

Now
50 °F

Fog.


Feels Like: 49 °F
Forecast: 56 / 76 °F
Wind: 3 mph from North

Location: Bale-Mulhouse

Current Time: Sep 3, 2014 at 6:55:29 AM

Latest Report: Sep 3, 2014 at 6:30 AM


Visibility: 2 mi

Pressure: 30.09 "Hg

Humidity: 100%

Dew point: 50 °F

Location of LörrachLocation

Historic Weather in Lörrach — Graph

°F

Lörrach temperature yesterday

Maximum temperature yesterday: 68 °F (at 3:00 PM)
Minimum temperature yesterday: 46 °F (at 3:00 AM)
Average temperature yesterday: 58 °F

Past Weeks' High & Low Weather Summary

 TemperatureHumidityPressure
High79 °F (Aug 28, 6:00 PM)100% (Aug 19, 7:00 AM)30.18 "Hg (Aug 19, 7:00 AM)
Low46 °F (Aug 21, 6:30 AM)40% (Aug 22, 1:30 PM)29.74 "Hg (Aug 26, 5:00 PM)
Average61 °F78%30.04 "Hg
* Reported Aug 19 5:00 AM — Sep 3 5:30 AM, Lörrach, Weather by CustomWeather, © 2014

Note: Actual official high and low records may vary slightly from our data, if they occured in-between our weather recording intervals... More about our weather records

Advertising

Lörrach weather history for previous 24 hours

 ConditionsComfort  
Time TempWeatherWind HumidityBarometerVisibility
5:30 AM
Sep 3
48 °FFog.2 mph94%30.09 "Hg3 mi
5:00 AM50 °FFog.3 mph94%30.07 "Hg3 mi
4:30 AM52 °FFog.2 mph94%30.09 "Hg3 mi
12:00 AM59 °FPassing clouds.2 mph94%30.12 "HgN/A
11:30 PM
Sep 2
59 °FPassing clouds.1 mph94%30.12 "HgN/A
11:00 PM61 °FPassing clouds.2 mph88%30.12 "HgN/A
10:30 PM63 °FPassing clouds.3 mph77%30.12 "HgN/A
10:00 PM61 °FPassing clouds.2 mph88%30.12 "HgN/A
9:00 PM63 °FPartly sunny.3 mph77%30.12 "HgN/A
8:30 PM63 °FBroken clouds.5 mph77%30.12 "HgN/A
7:30 PM66 °FPartly sunny.7 mph68%30.12 "HgN/A
7:00 PM66 °FPartly sunny.6 mph68%30.12 "HgN/A
6:30 PM66 °FPartly sunny.7 mph64%30.12 "HgN/A
6:00 PM66 °FPartly sunny.6 mph64%30.09 "HgN/A
5:30 PM66 °FScattered clouds.6 mph64%30.12 "HgN/A
5:00 PM68 °FPartly sunny.8 mph60%30.12 "HgN/A
4:30 PM68 °FScattered clouds.7 mph60%30.12 "HgN/A
4:00 PM66 °FPartly sunny.7 mph68%30.12 "HgN/A
3:30 PM68 °FBroken clouds.6 mph56%30.12 "HgN/A
3:00 PM68 °FBroken clouds.5 mph60%30.12 "HgN/A
2:30 PM66 °FScattered clouds.6 mph60%30.12 "HgN/A
2:00 PM66 °FPartly sunny.6 mph64%30.12 "HgN/A
1:30 PM66 °FPartly sunny.5 mph64%30.12 "HgN/A
1:00 PM66 °FPartly sunny.7 mph68%30.12 "HgN/A
12:30 PM66 °FScattered clouds.7 mph68%30.12 "HgN/A
12:00 PM64 °FPassing clouds.3 mph60%30.12 "HgN/A
11:30 AM63 °FPassing clouds.3 mph68%30.15 "HgN/A
11:00 AM61 °FPassing clouds.2 mph72%30.15 "HgN/A
10:30 AM57 °FPassing clouds.5 mph82%30.15 "HgN/A
10:00 AM55 °FScattered clouds.3 mph94%30.15 "Hg6 mi
9:30 AM54 °FPartly sunny.3 mph94%30.15 "Hg6 mi
9:00 AM52 °FPartly sunny.2 mph100%30.15 "Hg5 mi
8:30 AM52 °FScattered clouds.No wind94%30.15 "Hg5 mi
7:30 AM48 °FFog.2 mph100%30.15 "Hg5 mi
7:00 AM48 °FFog.1 mph100%30.15 "Hg5 mi
6:30 AM48 °FPassing clouds.3 mph94%30.15 "Hg4 mi
6:00 AM48 °FPassing clouds.No wind94%30.15 "Hg4 mi
Weather by CustomWeather, © 2014

See weather overviewHow to use our weather pages